Weather History for Mt. Clemens, MI

Change the Weather History Date:

Wednesday, March 27, 2013

  Actual Average Record
Temperature  
Mean Temperature 38 °F -  
Max Temperature 46 °F 48 °F 80 °F (1989)
Min Temperature 30 °F 30 °F 10 °F (1965)
Degree Days  
Heating Degree Days 27    
Moisture  
Dew Point 25 °F    
Average Humidity 58    
Maximum Humidity 75    
Minimum Humidity 40    
Precipitation  
Precipitation 0.00 in - - ()
Sea Level Pressure  
Sea Level Pressure 30.14 in    
Wind  
Wind Speed 12 mph (WNW)    
Max Wind Speed 17 mph    
Max Gust Speed 24 mph    
Visibility 11 miles    
Events      
Averages and records for this station are not official NWS values.
T = Trace of Precipitation, MM = Missing Value Source: NWS Daily Summary

Daily Weather History Graph

Daily Weather History Graph

Search for Another Location

Airport:

Trip Planner

Search our weather history database for the weather conditions in past years. The results will help you decide how hot, cold, wet, or windy it might be!

Date:

Astronomy

Mar. 27, 2013 Rise Set
Actual Time 7:21 AM EDT 7:51 PM EDT
Civil Twilight 6:53 AM EDT 8:20 PM EDT
Nautical Twilight 6:20 AM EDT 8:53 PM EDT
Astronomical Twilight 5:46 AM EDT 9:28 PM EDT
Moon 8:36 PM EDT (3/27) 7:11 AM EDT (3/27)
Length of Visible Light 13h 26m
Length of Day
12h 30m
Full, 100% of the Moon is Illuminated
Mar 27
Full
Apr 3
Last Quarter
Apr 10
New
Apr 18
First Quarter
Apr 25
Full

Hourly Weather History & Observations

Time (EDT) Temp. Windchill Dew Point Humidity Pressure Visibility Wind Dir Wind Speed Gust Speed Precip Events Conditions
12:55 AM 36.7 °F 28.4 °F 26.8 °F 67% 30.10 in 10.0 mi WNW 12.7 mph 20.7 mph N/A   Overcast
1:55 AM 35.8 °F 27.8 °F 25.3 °F 66% 30.10 in 10.0 mi WNW 11.5 mph - N/A   Overcast
2:55 AM 35.2 °F 27.6 °F 23.9 °F 63% 30.10 in 10.0 mi WNW 10.4 mph - N/A   Overcast
3:55 AM 33.3 °F 25.1 °F 23.2 °F 67% 30.11 in 10.0 mi West 10.4 mph - N/A   Clear
4:55 AM 32.0 °F 22.5 °F 23.0 °F 69% 30.11 in 10.0 mi WNW 12.7 mph - N/A   Scattered Clouds
5:55 AM 32.0 °F 23.6 °F 23.0 °F 69% 30.11 in 10.0 mi WNW 10.4 mph - N/A   Scattered Clouds
6:55 AM 30.2 °F 20.8 °F 23.0 °F 75% 30.12 in 10.0 mi WNW 11.5 mph - N/A   Partly Cloudy
7:55 AM 30.2 °F 21.3 °F 23.0 °F 75% 30.14 in 10.0 mi West 10.4 mph - N/A   Mostly Cloudy
8:55 AM 32.0 °F 22.1 °F 24.8 °F 75% 30.14 in 10.0 mi West 13.8 mph - N/A   Mostly Cloudy
9:55 AM 35.6 °F 26.2 °F 24.8 °F 65% 30.15 in 10.0 mi WNW 15.0 mph - N/A   Mostly Cloudy
10:55 AM 37.4 °F 28.5 °F 26.6 °F 65% 30.15 in 10.0 mi WNW 15.0 mph - N/A   Overcast
11:55 AM 41.0 °F 33.9 °F 26.6 °F 57% 30.16 in 10.0 mi NW 12.7 mph - N/A   Overcast
12:55 PM 42.8 °F 35.8 °F 24.8 °F 49% 30.15 in 10.0 mi WNW 13.8 mph 20.7 mph N/A   Overcast
1:55 PM 46.4 °F 39.8 °F 24.8 °F 43% 30.14 in 12.0 mi WNW 16.1 mph 24.2 mph N/A   Mostly Cloudy
2:55 PM 46.4 °F 40.1 °F 23.0 °F 40% 30.14 in 12.0 mi WNW 15.0 mph 21.9 mph N/A   Mostly Cloudy
3:55 PM 44.6 °F 38.8 °F 24.8 °F 46% 30.13 in 12.0 mi WNW 11.5 mph - N/A   Overcast
4:55 PM 44.6 °F 37.4 °F 24.8 °F 46% 30.13 in 12.0 mi WNW 16.1 mph - N/A   Overcast
5:55 PM 44.6 °F 38.8 °F 26.6 °F 49% 30.14 in 12.0 mi WNW 11.5 mph - N/A   Overcast
6:55 PM 44.6 °F 37.2 °F 26.6 °F 49% 30.14 in 12.0 mi West 17.3 mph 24.2 mph N/A   Overcast
7:55 PM 42.8 °F 36.6 °F 24.8 °F 49% 30.15 in 12.0 mi NW 11.5 mph 21.9 mph N/A   Mostly Cloudy
8:55 PM 42.8 °F 36.2 °F 26.6 °F 53% 30.17 in 12.0 mi NW 12.7 mph - N/A   Mostly Cloudy
9:55 PM 42.8 °F 37.0 °F 24.8 °F 49% 30.17 in 12.0 mi NW 10.4 mph - N/A   Mostly Cloudy
10:55 PM 41.0 °F 35.2 °F 26.6 °F 57% 30.18 in 12.0 mi NNW 9.2 mph - N/A   Overcast
11:55 PM 39.9 °F 35.1 °F 26.4 °F 59% 30.19 in 10.0 mi NW 6.9 mph - N/A   Overcast